Vertical_Velocity
-0 -0 -0 -2 -2 0 -1 -1 0 2 0 -1 1 1 1 -1 -1 -1 0 1 2 1 -1 -1 0 0 -0 -0 -0 -1 -1 -1 -1
-0 -1 -1 -2 -3 -3 -2 -1 -2 -1 1 1 -1 3 0 -0 1 1 1 1 0 1 2 -0 1 0 -0 -0 -0 0 0 -0 -0
-1 -1 -3 -0 -1 -2 -3 -4 -2 -1 -1 -1 3 0 1 1 -0 2 2 0 1 1 1 1 0 0 0 1 1 0 0 -0 -0
-4 0 -4 -3 1 1 0 -2 -2 -2 -1 0 -0 2 2 2 1 0 1 -1 -0 -0 1 2 1 -1 1 0 1 -0 -0 -0 0
-2 -2 -1 -1 -2 -1 -1 -3 0 -6 -2 1 -1 -0 4 1 1 -0 0 9 -6 2 -1 1 2 2 1 1 2 1 -0 -0 0
-0 -4 -2 -2 -2 -3 -2 -3 -1 -2 -3 -1 3 1 3 2 -0 0 -2 9 7 -6 1 0 -0 1 2 1 0 1 0 0 -1
-2 -0 -1 -4 -2 -3 -1 -4 -3 -3 6 6 4 6 2 -0 2 1 2 4 1 8 1 1 3 2 1 3 1 -0 -0 0 2
-2 -2 -1 -1 -1 4 3 -4 -9 -3 5 11 7 5 4 2 2 -1 4 1 5 4 4 2 5 5 -0 -2 1 1 -1 -0 -0
-0 -2 -1 -1 -1 -3 -2 -5 -3 -2 3 7 6 9 3 5 2 1 5 2 0 -1 -2 0 -1 1 0 1 1 0 0 -0 -1
-2 -2 -1 -0 -2 -2 -3 -5 -7 -4 2 5 7 8 5 2 3 -1 7 1 1 -1 1 1 1 -0 1 -1 0 0 -0 -1 -0
-2 -3 -3 -1 -2 -4 -5 -6 -7 -2 -0 4 3 1 5 4 2 -0 2 1 -0 1 0 -0 0 0 1 0 -1 -1 -0 1 1
-1 -2 -3 -1 -3 -4 -5 -8 -7 -2 0 1 1 2 2 3 3 0 1 1 -1 -2 3 0 0 0 -0 0 -1 -1 0 0 1
-2 -1 -2 -2 -3 -3 -2 -4 -9 -5 -1 1 -0 -0 0 2 1 2 1 1 -1 -0 2 0 -1 1 -0 -1 0 0 0 -0 1
-2 -0 -0 -0 -0 -2 -3 -2 -7 -9 -1 -8 -3 -3 -1 -1 4 -0 1 -0 1 -1 3 1 1 1 0 0 0 0 -0 1 -0
-3 -1 0 1 0 -3 -2 -4 -3 -4 2 -1 -5 -5 -1 -2 2 -1 1 0 -1 -1 0 -0 1 1 0 1 -1 -1 -0 -1 -0
-2 -1 -0 1 0 -2 -1 -3 -1 -5 -2 4 4 2 0 -1 2 -0 -1 -0 -0 -0 -0 -0 -1 -1 1 -2 1 -2 -2 -2 -2
-2 -1 0 0 -1 1 -0 -2 -2 -1 -3 -4 3 4 7 1 0 -0 -2 -1 -1 -1 -1 1 2 -0 1 -3 -1 -2 -2 -2 -1
-3 -0 -2 -1 1 0 0 -0 -1 -0 0 -3 -3 -0 -0 4 2 0 -0 -1 1 0 -0 1 -2 -1 -0 -1 -2 -1 -2 -0 -0
-0 -1 -1 -1 -1 0 -0 -0 -0 -2 0 1 1 -2 -2 1 0 -1 -1 1 1 -1 -2 -0 -1 -2 -0 -0 2 -1 1 1 1
0 -1 -2 -1 -1 -1 1 -1 0 -1 -1 -1 0 -2 2 1 -2 -2 0 0 -3 6 -4 -3 -0 -1 -2 3 -2 -1 -1 0 -1
Height
5839 5837 5835 5833 5833 5831 5831 5830 5830 5829 5828 5829 5828 5828 5828 5829 5829 5829 5830 5830 5830 5830 5830 5831 5832 5833 5835 5836 5837 5838 5839 5840 5841
5833 5831 5829 5827 5826 5825 5823 5822 5821 5821 5820 5820 5820 5821 5821 5822 5823 5824 5825 5825 5825 5826 5827 5828 5829 5830 5831 5833 5834 5835 5835 5836 5838
5828 5826 5823 5822 5819 5817 5815 5813 5811 5810 5810 5810 5811 5811 5813 5814 5815 5817 5819 5820 5821 5821 5822 5824 5826 5827 5828 5829 5830 5831 5832 5833 5834
5824 5821 5818 5814 5811 5808 5804 5802 5800 5799 5797 5798 5799 5800 5802 5805 5806 5809 5810 5813 5814 5816 5817 5819 5821 5822 5824 5825 5826 5827 5829 5830 5831
5817 5813 5809 5806 5802 5797 5794 5791 5788 5786 5785 5784 5784 5787 5790 5793 5796 5799 5802 5805 5807 5809 5811 5813 5815 5817 5819 5819 5822 5823 5825 5826 5827
5810 5806 5802 5797 5792 5786 5782 5777 5773 5769 5766 5765 5767 5770 5775 5779 5784 5788 5791 5795 5798 5800 5803 5807 5809 5811 5812 5815 5816 5818 5820 5821 5822
5803 5798 5793 5787 5780 5773 5767 5761 5754 5745 5738 5739 5743 5751 5757 5763 5770 5776 5781 5785 5790 5792 5795 5799 5802 5804 5806 5808 5811 5813 5814 5816 5817
5796 5790 5784 5777 5769 5761 5751 5741 5729 5713 5705 5710 5720 5731 5740 5748 5756 5764 5770 5774 5781 5784 5787 5791 5794 5797 5799 5802 5804 5806 5808 5809 5811
5788 5781 5774 5766 5756 5746 5735 5721 5702 5681 5677 5686 5700 5714 5724 5734 5743 5751 5760 5766 5770 5775 5780 5783 5787 5790 5793 5796 5798 5799 5801 5803 5804
5780 5773 5765 5755 5746 5734 5720 5703 5680 5662 5660 5671 5686 5701 5713 5722 5732 5741 5749 5756 5761 5767 5772 5777 5780 5783 5786 5789 5791 5793 5795 5796 5798
5773 5765 5758 5748 5738 5725 5710 5691 5669 5655 5655 5665 5679 5694 5706 5715 5724 5733 5740 5748 5754 5759 5765 5769 5773 5776 5779 5782 5784 5786 5787 5789 5791
5765 5758 5751 5742 5731 5718 5703 5687 5669 5658 5658 5667 5679 5691 5702 5710 5718 5726 5734 5742 5747 5751 5757 5762 5766 5769 5772 5774 5777 5779 5781 5783 5784
5758 5752 5745 5737 5727 5715 5703 5689 5675 5665 5666 5674 5683 5692 5701 5707 5714 5722 5729 5735 5741 5745 5750 5754 5758 5761 5764 5767 5770 5772 5774 5775 5776
5751 5746 5740 5732 5724 5714 5704 5695 5685 5678 5677 5683 5689 5695 5700 5705 5711 5718 5724 5730 5736 5740 5744 5748 5751 5755 5757 5760 5762 5763 5765 5766 5767
5745 5739 5734 5728 5722 5714 5706 5698 5693 5689 5686 5689 5694 5697 5700 5705 5709 5715 5721 5725 5731 5735 5739 5742 5745 5748 5751 5753 5754 5755 5757 5758 5758
5739 5733 5728 5724 5719 5714 5707 5701 5696 5695 5693 5692 5694 5697 5700 5705 5708 5712 5717 5722 5726 5730 5733 5736 5739 5741 5744 5745 5747 5748 5749 5749 5749
5732 5727 5723 5720 5716 5712 5707 5703 5699 5696 5695 5695 5695 5696 5700 5703 5706 5710 5715 5718 5722 5725 5728 5730 5733 5735 5737 5738 5739 5739 5740 5740 5740
5727 5721 5718 5715 5713 5709 5706 5703 5699 5697 5696 5696 5697 5697 5698 5701 5703 5707 5711 5714 5717 5720 5722 5724 5726 5728 5729 5730 5730 5731 5731 5731 5732
5721 5716 5712 5710 5708 5706 5704 5702 5699 5696 5695 5695 5696 5696 5698 5699 5701 5704 5707 5710 5712 5714 5716 5718 5719 5720 5721 5722 5722 5722 5722 5723 5724
5716 5711 5708 5706 5704 5702 5700 5699 5697 5695 5694 5693 5693 5695 5696 5697 5698 5700 5702 5704 5705 5708 5709 5710 5711 5712 5712 5713 5712 5713 5714 5715 5715